Weather History for Wolf Creek Pass, CO

Change the Weather History Date:

Wednesday, April 2, 2014

  Actual Average (KALS) Record (KALS)
Temperature  
Mean Temperature 18 °F 38 °F  
Max Temperature 23 °F 55 °F 75 °F (2011)
Min Temperature 14 °F 21 °F 1 °F (1936)
Degree Days  
Heating Degree Days 46 27  
Month to date heating degree days 54  
Since 1 July heating degree days 7360  
Cooling Degree Days 0 0  
Month to date cooling degree days 0  
Year to date cooling degree days 0  
Moisture  
Dew Point 14 °F    
Average Humidity 86    
Maximum Humidity 100    
Minimum Humidity 43    
Precipitation  
Precipitation 0.21 in 0.02 in 0.45 in (1957)
Month to date precipitation 0.04  
Year to date precipitation 1.09  
Snow  
Snow 0.00 in 0.10 in 6.60 in (1957)
Month to date snowfall 0.3  
Since 1 July snowfall 23.4  
Snow Depth -    
Sea Level Pressure  
Sea Level Pressure 29.79 in    
Wind  
Wind Speed 29 mph (SW)    
Max Wind Speed 40 mph    
Max Gust Speed 66 mph    
Visibility 3 miles    
Events Snow    
T = Trace of Precipitation, MM = Missing Value Source: NWS Daily Summary

Daily Weather History Graph

Daily Weather History Graph

Search for Another Location

Airport:

Trip Planner

Search our weather history database for the weather conditions in past years. The results will help you decide how hot, cold, wet, or windy it might be!

Date:

Astronomy

Apr. 02, 2014 Rise Set
Actual Time 6:51 AM MDT 7:30 PM MDT
Civil Twilight 6:24 AM MDT 7:57 PM MDT
Nautical Twilight 5:53 AM MDT 8:28 PM MDT
Astronomical Twilight 5:21 AM MDT 9:00 PM MDT
Moon 8:40 AM MDT (4/2) 10:53 PM MDT (4/2)
Length of Visible Light 13h 32m
Length of Day
12h 39m
Waxing Crescent, 10% of the Moon is Illuminated
Apr 2
Waxing Crescent
Apr 7
First Quarter
Apr 15
Full
Apr 22
Last Quarter
Apr 29
New

Hourly Weather History & Observations

Time (MDT) Temp. Windchill Dew Point Humidity Pressure Visibility Wind Dir Wind Speed Gust Speed Precip Events Conditions
12:15 AM 23.0 °F 4.4 °F 3.2 °F 43% - 10.0 mi SW 34.5 mph 65.6 mph N/A   Overcast
12:36 AM 21.2 °F 2.7 °F 3.2 °F 46% 29.86 in 10.0 mi SW 31.1 mph 54.1 mph N/A   Overcast
12:56 AM 21.2 °F 2.2 °F 3.2 °F 46% 29.86 in 10.0 mi SW 33.4 mph 57.5 mph N/A   Overcast
1:16 AM 21.2 °F 0.7 °F 3.2 °F 46% 29.85 in 7.0 mi SW 40.3 mph 58.7 mph N/A   Overcast
1:36 AM 21.2 °F 2.7 °F 3.2 °F 46% 29.86 in 10.0 mi SW 31.1 mph 49.5 mph N/A   Overcast
1:51 AM 21.2 °F 3.0 °F 3.2 °F 46% 29.85 in 10.0 mi SSW 29.9 mph 51.8 mph N/A   Overcast
2:13 AM 19.4 °F -0.6 °F 3.2 °F 49% 29.84 in 10.0 mi SW 34.5 mph 56.4 mph N/A   Overcast
2:36 AM 19.4 °F -0.6 °F 5.0 °F 54% 29.84 in 10.0 mi SW 34.5 mph 49.5 mph N/A   Overcast
2:55 AM 19.4 °F -0.3 °F 5.0 °F 54% 29.83 in 10.0 mi SW 33.4 mph 50.6 mph N/A   Overcast
3:15 AM 19.4 °F -0.6 °F 5.0 °F 54% 29.82 in 10.0 mi SW 34.5 mph 44.9 mph N/A   Overcast
3:36 AM 19.4 °F -1.3 °F 5.0 °F 54% 29.82 in 10.0 mi SW 38.0 mph 47.2 mph N/A   Overcast
3:50 AM 19.4 °F 0.2 °F 5.0 °F 54% 29.82 in 10.0 mi SW 31.1 mph 50.6 mph N/A   Overcast
4:14 AM 17.6 °F -1.0 °F 5.0 °F 58% 29.81 in 10.0 mi SW 26.5 mph 41.4 mph N/A   Overcast
4:33 AM 17.6 °F -1.9 °F 5.0 °F 58% 29.80 in 10.0 mi SW 29.9 mph 46.0 mph N/A   Overcast
4:56 AM 17.6 °F -1.9 °F 8.6 °F 68% 29.80 in 10.0 mi SW 29.9 mph 47.2 mph N/A   Overcast
5:15 AM 17.6 °F -2.5 °F 10.4 °F 73% 29.79 in 10.0 mi SW 32.2 mph 51.8 mph N/A   Overcast
6:56 AM 17.6 °F -0.6 °F 12.2 °F 79% 29.78 in 4.0 mi SW 25.3 mph 44.9 mph N/A Snow Light Snow
7:16 AM 17.6 °F -2.5 °F 14.0 °F 86% 29.78 in 7.0 mi SW 32.2 mph 43.7 mph N/A Snow Light Snow
7:35 AM 17.6 °F -1.0 °F 14.0 °F 86% 29.79 in 5.0 mi SW 26.5 mph 51.8 mph N/A Snow Light Snow
7:51 AM 15.8 °F -5.5 °F 14.0 °F 93% 29.79 in 1.5 mi SSW 34.5 mph 46.0 mph N/A Snow Light Snow
8:16 AM 15.8 °F -5.0 °F 14.0 °F 93% 29.79 in 0.5 mi SW 32.2 mph 48.3 mph N/A Snow Snow
8:36 AM 15.8 °F -2.7 °F 14.0 °F 93% 29.80 in 0.2 mi SW 24.2 mph 41.4 mph N/A Snow Heavy Snow
8:52 AM 15.8 °F -4.1 °F 14.0 °F 93% 29.79 in 0.2 mi SW 28.8 mph 36.8 mph N/A Snow Snow
9:15 AM 15.8 °F -1.9 °F 14.0 °F 93% 29.79 in 0.2 mi SSW 21.9 mph 39.1 mph N/A Snow Heavy Snow
9:36 AM 15.8 °F -4.1 °F 15.8 °F 100% 29.79 in 0.2 mi SSW 28.8 mph 39.1 mph N/A Snow Heavy Snow
9:53 AM 17.6 °F 1.3 °F 15.8 °F 93% 29.80 in 0.2 mi SW 19.6 mph 38.0 mph 0.01 in Snow Heavy Snow
10:15 AM 17.6 °F 0.5 °F 15.8 °F 93% 29.80 in 0.2 mi SW 21.9 mph 39.1 mph N/A Snow Heavy Snow
10:35 AM 17.6 °F 0.5 °F 15.8 °F 93% 29.80 in 0.2 mi SSW 21.9 mph 40.3 mph 0.01 in Snow Heavy Snow
10:51 AM 17.6 °F -1.0 °F 15.8 °F 93% 29.81 in 0.2 mi SSW 26.5 mph 38.0 mph 0.01 in Snow Heavy Snow
11:14 AM 17.6 °F -0.3 °F 17.6 °F 100% 29.81 in 0.2 mi SSW 24.2 mph 38.0 mph N/A Snow Heavy Snow
11:55 AM 17.6 °F -1.6 °F 17.6 °F 100% 29.80 in 0.2 mi SSW 28.8 mph 42.6 mph 0.01 in Snow Heavy Snow
12:16 PM 17.6 °F 0.1 °F 17.6 °F 100% 29.80 in 0.2 mi SSW 23.0 mph 33.4 mph 0.01 in Snow Heavy Snow
12:30 PM 19.4 °F 5.5 °F 17.6 °F 93% 29.80 in 0.2 mi SW 15.0 mph 36.8 mph 0.01 in Snow Snow
12:53 PM 19.4 °F 2.5 °F 19.4 °F 100% 29.79 in 0.2 mi SSW 23.0 mph 34.5 mph 0.01 in Snow Snow
1:15 PM 19.4 °F 4.1 °F 19.4 °F 100% 29.79 in 0.2 mi SSW 18.4 mph 41.4 mph N/A Snow Heavy Snow
1:34 PM 19.4 °F 1.4 °F 19.4 °F 100% 29.78 in 0.2 mi SW 26.5 mph 36.8 mph 0.02 in Snow Heavy Snow
1:56 PM 19.4 °F - 19.4 °F 100% 29.78 in 0.2 mi North - - 0.02 in Snow Heavy Snow
2:15 PM 19.4 °F 0.8 °F 19.4 °F 100% 29.77 in 0.2 mi SW 28.8 mph 47.2 mph N/A Snow Light Snow
2:32 PM 19.4 °F 2.1 °F 19.4 °F 100% 29.77 in 0.2 mi SW 24.2 mph 47.2 mph N/A Snow Light Snow
2:52 PM 19.4 °F 1.4 °F 19.4 °F 100% 29.77 in 0.2 mi SSW 26.5 mph 43.7 mph 0.01 in Snow Heavy Snow
3:16 PM 19.4 °F 2.8 °F 19.4 °F 100% 29.76 in 0.2 mi SSW 21.9 mph 46.0 mph N/A Snow Light Snow
3:35 PM 19.4 °F 5.0 °F 19.4 °F 100% 29.77 in 0.2 mi SSW 16.1 mph 49.5 mph N/A Snow Snow
3:56 PM 19.4 °F 3.2 °F 19.4 °F 100% 29.77 in 0.2 mi SW 20.7 mph 35.7 mph 0.01 in Snow Snow
4:15 PM 19.4 °F 0.2 °F 19.4 °F 100% 29.76 in 0.2 mi SSW 31.1 mph 44.9 mph N/A Snow Heavy Snow
4:36 PM 21.2 °F 3.9 °F 21.2 °F 100% 29.76 in 0.2 mi SSW 26.5 mph 44.9 mph 0.01 in Snow Light Snow
4:53 PM 21.2 °F 2.7 °F 21.2 °F 100% 29.76 in 0.2 mi SW 31.1 mph 42.6 mph 0.01 in Snow Light Snow
5:05 PM 19.4 °F 0.2 °F 19.4 °F 100% 29.76 in 0.5 mi SW 31.1 mph 47.2 mph N/A Snow Light Snow
5:36 PM 19.4 °F 2.8 °F 19.4 °F 100% 29.76 in 0.2 mi SW 21.9 mph 36.8 mph N/A Snow Snow
5:57 PM 19.4 °F 4.1 °F 19.4 °F 100% 29.76 in 0.2 mi SSW 18.4 mph 39.1 mph N/A Snow Snow
6:14 PM 19.4 °F 2.5 °F 19.4 °F 100% 29.76 in 0.2 mi SW 23.0 mph 33.4 mph N/A Snow Snow
6:35 PM 19.4 °F -0.6 °F 19.4 °F 100% 29.75 in 0.8 mi SW 34.5 mph 44.9 mph N/A Snow Light Snow
6:55 PM 19.4 °F -1.6 °F 19.4 °F 100% 29.75 in 2.5 mi SW 39.1 mph 46.0 mph N/A   Overcast
7:15 PM 19.4 °F -0.3 °F 17.6 °F 93% 29.75 in 4.0 mi SW 33.4 mph 43.7 mph N/A   Overcast
7:36 PM 19.4 °F 1.8 °F 17.6 °F 93% 29.76 in 1.2 mi SW 25.3 mph 36.8 mph N/A   Overcast
7:50 PM 19.4 °F 3.6 °F 17.6 °F 93% 29.77 in 1.8 mi SSW 19.6 mph 35.7 mph N/A   Overcast
8:07 PM 17.6 °F 2.7 °F 17.6 °F 100% 29.77 in 0.8 mi SW 16.1 mph 29.9 mph N/A Snow Snow
8:35 PM 17.6 °F 0.1 °F 17.6 °F 100% 29.77 in 0.5 mi SSW 23.0 mph 34.5 mph 0.01 in Snow Snow
8:53 PM 17.6 °F 0.9 °F 17.6 °F 100% 29.77 in 0.2 mi SSW 20.7 mph 28.8 mph 0.01 in Snow Snow
9:17 PM 17.6 °F 3.2 °F 17.6 °F 100% 29.78 in 0.5 mi SSW 15.0 mph 26.5 mph 0.01 in Snow Snow
9:35 PM 17.6 °F -0.3 °F 17.6 °F 100% 29.77 in 0.2 mi WSW 24.2 mph 40.3 mph 0.03 in Snow Heavy Snow
10:14 PM 17.6 °F 0.1 °F 15.8 °F 93% 29.77 in 0.2 mi SW 23.0 mph 31.1 mph 0.03 in Snow Heavy Snow
10:34 PM 17.6 °F 2.7 °F 17.6 °F 100% 29.77 in - SW 16.1 mph 26.5 mph 0.05 in   Overcast
10:56 PM 17.6 °F -0.3 °F 15.8 °F 93% 29.76 in 0.2 mi SW 24.2 mph 35.7 mph 0.06 in Snow Heavy Snow
11:15 PM 15.8 °F -4.4 °F 14.0 °F 93% 29.76 in 0.5 mi WSW 29.9 mph 41.4 mph 0.02 in Snow Heavy Snow
11:36 PM 14.0 °F -5.8 °F 14.0 °F 100% 29.77 in - SW 26.5 mph 36.8 mph 0.02 in   Overcast
11:54 PM 14.0 °F - 14.0 °F 100% 29.77 in - North - - 0.02 in   Overcast